Davenport, IA

11:13 AM CDT on July 27, 2017 (GMT -0500)
Davenport Municipal

Weather History for KDVN - April, 2014

Change the Weather History Date:

Thursday, April 24, 2014

  Actual Average Record
Temperature  
Mean Temperature 53 °F 53 °F  
Max Temperature 63 °F 65 °F 82 °F (1948)
Min Temperature 43 °F 42 °F 27 °F (1967)
Degree Days  
Heating Degree Days 12 12  
Month to date heating degree days 404 381  
Since 1 July heating degree days 7304 6239  
Cooling Degree Days 0 0  
Month to date cooling degree days 6 0  
Year to date cooling degree days 6 0  
Growing Degree Days 2 (Base 50)    
Moisture  
Dew Point 46 °F    
Average Humidity 72    
Maximum Humidity 100    
Minimum Humidity 43    
Precipitation  
Precipitation 0.28 in 0.12 in 2.79 in (1950)
Month to date precipitation 2.18 2.57  
Year to date precipitation 5.49 7.62  
Snow  
Snow 0.00 in - - ()
Month to date snowfall T  
Since 1 July snowfall 50.2  
Snow Depth 0.00 in    
Sea Level Pressure  
Sea Level Pressure 29.74 in    
Wind  
Wind Speed 15 mph (ESE)    
Max Wind Speed 31 mph    
Max Gust Speed 38 mph    
Visibility 6 miles    
Events Rain , Thunderstorm    
T = Trace of Precipitation, MM = Missing Value Source: NWS Daily Summary

Daily Weather History Graph

Daily Weather History Graph

Search for Another Location

Airport or City:

Trip Planner

Search our weather history database for the weather conditions in past years. The results will help you decide how hot, cold, wet, or windy it might be!

Date:

Astronomy

Apr. 24, 2014 Rise Set
Actual Time 6:08 AM CDT 7:52 PM CDT
Civil Twilight 5:39 AM CDT 8:22 PM CDT
Nautical Twilight 5:03 AM CDT 8:58 PM CDT
Astronomical Twilight 4:25 AM CDT 9:37 PM CDT
Moon 3:24 AM CDT (4/24) 3:04 PM CDT (4/24)
Length of Visible Light 14h 43m
Length of Day
13h 44m
Waning Crescent, 24% of the Moon is Illuminated
Apr 24
Waning Crescent
Apr 29
New
May 6
First Quarter
May 14
Full
May 21
Last Quarter

Hourly Weather History & Observations

Time (CDT) Temp. Windchill Dew Point Humidity Pressure Visibility Wind Dir Wind Speed Gust Speed Precip Events Conditions
12:52 AM 46.9 °F - 37.0 °F 68% 29.96 in 10.0 mi ESE 15.0 mph - N/A   Overcast
1:52 AM 45.0 °F 38.2 °F 37.0 °F 74% 29.96 in 10.0 mi East 15.0 mph - N/A   Partly Cloudy
2:52 AM 45.0 °F 37.9 °F 36.0 °F 71% 29.95 in 10.0 mi ESE 16.1 mph - N/A   Mostly Cloudy
3:52 AM 44.1 °F 36.2 °F 35.1 °F 71% 29.92 in 10.0 mi ESE 18.4 mph - N/A   Clear
4:52 AM 43.0 °F 35.1 °F 36.0 °F 76% 29.90 in 10.0 mi ESE 17.3 mph - N/A   Clear
5:52 AM 44.1 °F 35.9 °F 36.0 °F 73% 29.87 in 10.0 mi SE 19.6 mph 28.8 mph N/A   Mostly Cloudy
6:52 AM 46.0 °F 38.0 °F 37.0 °F 71% 29.86 in 10.0 mi SE 21.9 mph - N/A   Overcast
7:52 AM 48.0 °F - 37.0 °F 66% 29.85 in 10.0 mi SE 21.9 mph 29.9 mph N/A   Mostly Cloudy
8:52 AM 51.1 °F - 39.0 °F 63% 29.81 in 10.0 mi SSE 24.2 mph 29.9 mph N/A   Scattered Clouds
9:52 AM 54.0 °F - 39.9 °F 59% 29.79 in 10.0 mi SSE 26.5 mph 35.7 mph 0.02 in Rain Light Rain
10:52 AM 57.9 °F - 39.9 °F 51% 29.77 in 10.0 mi SSE 21.9 mph 29.9 mph 0.00 in   Partly Cloudy
11:52 AM 62.1 °F - 39.0 °F 43% 29.75 in 10.0 mi SSE 27.6 mph 36.8 mph N/A   Partly Cloudy
12:38 PM 60.1 °F - 39.9 °F 47% 29.77 in 6.0 mi South 18.4 mph 26.5 mph 0.01 in Rain , Thunderstorm Thunderstorms and Rain
12:52 PM 57.9 °F - 42.1 °F 56% 29.78 in 8.0 mi SSW 13.8 mph - 0.01 in Rain Light Rain
1:52 PM 57.9 °F - 48.0 °F 70% 29.75 in 10.0 mi SE 11.5 mph - 0.04 in   Overcast
2:52 PM 57.9 °F - 46.9 °F 67% 29.69 in 10.0 mi SE 12.7 mph - 0.01 in   Overcast
3:52 PM 61.0 °F - 48.0 °F 62% 29.67 in 10.0 mi SSE 16.1 mph - N/A   Mostly Cloudy
4:52 PM 59.0 °F - 48.0 °F 67% 29.68 in 10.0 mi South 10.4 mph - N/A   Overcast
5:52 PM 57.0 °F - 51.1 °F 81% 29.66 in 6.0 mi South 4.6 mph - 0.02 in Rain Light Rain
6:34 PM 55.0 °F - 52.0 °F 89% 29.65 in 2.5 mi Calm Calm - 0.05 in Rain Rain
6:48 PM 55.4 °F - 51.8 °F 88% 29.65 in 4.0 mi Calm Calm - 0.07 in Rain Light Rain
6:52 PM 55.0 °F - 52.0 °F 89% 29.66 in 2.0 mi Calm Calm - 0.08 in Rain Light Rain
6:59 PM 54.0 °F - 52.0 °F 93% 29.66 in 1.2 mi WNW 5.8 mph - 0.03 in Rain Rain
7:24 PM 54.0 °F - 52.0 °F 93% 29.66 in 2.5 mi NW 6.9 mph - 0.06 in Rain Light Rain
7:32 PM 54.0 °F - 51.1 °F 90% 29.67 in 3.0 mi WNW 8.1 mph - 0.06 in Rain Light Rain
7:52 PM 53.1 °F - 51.1 °F 93% 29.67 in 4.0 mi NW 6.9 mph - 0.06 in Rain Light Rain
8:52 PM 53.1 °F - 51.1 °F 93% 29.66 in 4.0 mi NNE 6.9 mph - 0.01 in   Overcast
9:43 PM 52.0 °F - 51.1 °F 97% 29.66 in 2.5 mi North 8.1 mph - 0.01 in Rain Light Rain
9:52 PM 53.1 °F - 51.1 °F 93% 29.67 in 2.5 mi North 9.2 mph - 0.02 in Rain Light Rain
10:04 PM 52.0 °F - 51.1 °F 97% 29.67 in 3.0 mi North 10.4 mph - 0.00 in Rain Light Rain
10:11 PM 52.0 °F - 51.1 °F 97% 29.67 in 2.5 mi North 10.4 mph - 0.00 in Rain Light Rain
10:18 PM 52.0 °F - 51.1 °F 97% 29.66 in 3.0 mi North 12.7 mph - 0.00 in Rain Light Rain
10:26 PM 52.0 °F - 51.1 °F 97% 29.66 in 3.0 mi North 9.2 mph - 0.01 in Rain Light Rain
10:39 PM 52.0 °F - 50.0 °F 93% 29.67 in 3.0 mi NNW 10.4 mph - 0.01 in Rain Light Rain
10:52 PM 52.0 °F - 51.1 °F 97% 29.68 in 3.0 mi NNW 5.8 mph - 0.01 in Rain Light Rain
11:52 PM 52.0 °F - 48.9 °F 89% 29.68 in 4.0 mi NNW 15.0 mph - 0.00 in   Overcast